Theta_e
314 315 314 312 311 309 308 309 309 309 309 310 310 310 310 311 311 312 311 316 318 317 318 320 330 330 332 337 340 339 345 346 343 343 339 335 337 340 337 337 340 345 347 346 345
314 315 315 313 311 310 309 308 309 309 310 310 310 311 311 312 312 314 318 318 317 320 321 324 327 330 331 335 340 341 342 343 341 340 339 336 336 337 336 341 345 350 347 346 345
314 315 316 315 313 311 309 309 309 309 310 310 311 311 312 312 321 317 324 320 319 320 323 324 325 326 328 336 339 339 340 340 341 341 341 340 337 338 337 339 344 350 348 346 345
313 315 316 316 315 312 310 309 309 310 310 311 311 312 312 316 322 327 325 322 321 319 320 325 326 329 332 340 339 343 343 341 341 341 339 338 338 343 342 342 341 347 346 346 345
312 314 315 317 317 313 311 310 309 310 310 311 311 312 315 322 316 323 326 324 321 320 321 325 327 328 333 338 339 344 342 340 341 341 335 335 338 341 345 341 342 346 346 346 345
310 313 315 317 317 315 312 310 310 310 310 311 312 313 319 316 322 324 324 322 322 319 325 325 326 327 333 335 336 339 340 338 337 338 337 337 337 340 343 340 346 345 345 340 337
309 311 315 317 318 317 312 311 310 310 310 311 312 314 323 318 323 323 323 323 322 325 325 327 328 326 327 332 334 337 339 337 336 337 336 335 338 340 336 336 339 344 338 338 336
308 310 314 317 318 318 313 311 310 310 311 311 313 319 319 319 320 321 320 322 325 326 328 329 328 326 327 328 333 336 336 338 337 336 335 334 337 342 338 340 340 340 340 338 337
310 311 313 317 318 319 315 311 310 311 312 314 315 325 323 325 324 324 322 326 328 328 328 327 327 326 330 331 332 331 334 334 336 332 336 337 342 343 342 344 343 340 340 338 338
311 312 314 317 319 319 315 311 312 314 319 320 320 322 322 325 327 328 327 326 327 327 327 328 324 329 327 329 335 334 334 333 334 332 334 339 343 343 344 345 345 341 339 339 335
311 314 316 318 320 320 315 318 317 319 321 318 319 323 326 326 327 328 327 325 326 327 328 327 327 331 331 331 331 333 333 333 332 331 334 340 341 341 338 339 344 344 341 335 331
311 314 316 319 322 320 317 314 321 318 316 320 323 323 324 324 325 325 327 328 328 328 328 328 330 331 332 331 333 333 334 333 331 331 335 338 340 341 338 335 334 335 336 334 334
311 313 317 321 322 317 315 313 315 313 316 321 323 323 322 321 322 324 326 326 328 329 329 328 330 331 330 330 332 332 330 330 330 330 331 338 341 341 339 337 336 335 336 332 333
312 313 318 323 323 319 322 323 321 314 320 325 324 325 323 320 322 324 325 327 327 328 327 329 331 330 331 331 330 333 331 330 331 330 330 331 332 339 338 336 336 332 337 336 333
312 317 322 323 323 317 322 322 321 319 331 331 325 325 322 321 322 324 325 326 327 327 326 327 332 330 331 332 330 333 332 330 330 330 330 333 333 340 337 337 334 338 344 342 334
314 320 323 323 323 317 323 324 322 325 332 331 326 324 321 320 321 322 323 323 324 326 325 325 325 328 329 330 331 331 331 328 326 326 331 335 333 337 338 337 334 337 339 340 337
315 319 323 322 322 323 324 320 322 327 327 329 324 323 324 328 322 330 333 328 323 324 323 325 325 327 331 331 329 328 328 330 332 333 332 335 338 338 338 335 332 335 336 335 335
315 323 328 324 319 321 324 320 326 328 330 330 332 331 333 333 332 333 332 331 328 327 327 329 331 332 331 330 330 331 329 331 341 340 338 338 343 341 337 335 333 333 333 333 332
318 325 328 318 316 321 319 324 326 329 330 329 327 330 333 334 333 331 331 332 332 329 329 331 333 335 332 332 330 332 333 331 338 340 341 341 341 336 336 336 334 331 333 333 330
318 328 329 326 320 322 320 324 326 328 328 326 327 327 327 332 334 332 333 334 336 334 328 334 338 336 334 334 333 332 333 340 339 344 346 343 341 340 338 336 337 336 331 332 330
325 331 328 321 321 318 320 322 324 326 326 325 325 325 326 329 334 333 335 336 339 339 335 336 335 335 335 335 335 336 336 335 334 336 337 340 341 333 335 334 336 335 333 332 330
319 334 325 322 318 317 320 322 324 325 325 325 325 326 328 328 329 330 339 339 338 338 341 337 338 340 338 335 334 334 336 332 334 337 339 339 340 336 333 331 330 335 333 330 330
315 326 328 323 319 317 320 325 325 326 329 324 325 325 326 327 327 330 340 338 337 338 336 335 337 340 334 334 336 337 335 333 331 331 338 339 337 333 333 330 323 326 322 330 329
320 340 330 319 315 319 318 321 326 326 328 330 330 329 331 332 330 333 342 338 337 338 339 335 338 339 341 337 338 339 339 336 333 334 335 338 341 337 333 328 321 322 320 319 319
327 339 333 330 339 336 335 324 326 329 330 330 331 332 334 336 338 340 337 337 337 337 336 335 339 340 339 339 340 340 340 338 340 337 340 338 340 335 330 319 317 319 320 320 317
320 329 327 335 336 338 328 334 334 337 330 331 332 334 334 338 340 340 339 338 339 335 334 332 336 339 342 337 335 341 341 340 340 337 336 338 334 330 326 316 317 316 317 317 315
315 319 325 330 335 337 337 337 337 336 332 330 332 334 335 335 334 334 334 333 336 333 334 335 338 339 342 337 339 343 342 340 338 336 334 332 327 323 318 318 316 315 315 315 315
Wind_Speed
22 20 17 14 10 6 4 4 4 5 5 6 6 7 8 9 7 7 8 9 6 9 14 9 8 9 8 5 7 3 1 3 6 3 5 3 5 4 5 9 4 7 9 8 35
21 21 19 15 11 7 4 3 4 4 5 6 6 7 8 10 8 10 19 13 11 8 8 11 4 2 2 4 5 5 2 4 4 11 3 4 8 8 5 6 2 3 5 25 36
21 20 19 16 12 8 5 4 4 5 5 5 6 6 7 7 2 8 12 17 14 10 14 6 7 2 5 2 8 5 6 7 6 13 11 11 5 7 7 3 7 10 13 20 30
20 20 19 18 14 10 6 4 4 5 5 5 5 6 6 2 5 3 5 16 16 14 13 4 2 2 2 2 4 2 8 5 7 6 6 2 4 3 3 7 10 14 22 21 21
19 19 19 18 16 11 8 5 5 5 4 4 5 6 3 2 8 6 3 16 15 17 9 2 2 2 2 4 2 4 2 3 7 8 9 6 2 8 5 8 5 14 16 19 16
20 19 19 18 18 12 8 6 5 5 4 4 4 5 1 2 5 13 6 16 15 15 5 7 7 7 5 7 5 4 3 5 5 8 4 3 4 2 9 15 10 10 10 15 20
21 19 19 19 20 14 9 7 6 5 5 4 3 2 1 11 2 7 13 16 15 13 5 14 9 3 3 2 9 5 5 5 4 5 6 3 1 6 17 18 12 13 16 11 11
24 21 20 20 22 16 10 7 6 6 5 5 3 2 7 5 11 11 12 10 13 17 20 23 20 2 4 5 7 3 4 3 4 5 4 3 6 6 10 19 13 8 9 10 14
27 23 22 21 23 18 10 6 6 4 4 4 2 3 9 7 9 19 18 12 18 19 24 23 3 3 6 4 5 6 3 4 6 14 2 2 3 7 3 9 6 8 14 12 7
29 26 24 24 23 18 10 6 5 4 2 1 3 2 5 8 9 11 23 25 7 6 4 1 6 4 4 5 2 6 5 5 7 11 3 9 2 6 5 0 6 9 8 12 8
31 28 27 25 23 16 8 2 3 1 4 8 7 5 5 7 7 11 20 16 9 5 4 3 6 1 4 2 7 5 4 5 12 11 1 7 4 4 6 5 7 9 7 7 4
32 30 30 27 22 13 6 2 6 4 6 16 13 8 18 6 5 16 17 8 4 5 3 6 4 5 4 7 10 11 9 8 7 6 5 9 4 6 5 5 4 8 8 6 0
34 33 31 26 20 5 7 15 9 11 3 7 7 6 8 8 9 14 6 6 6 5 6 5 7 5 5 6 7 9 7 5 7 3 5 8 3 3 6 6 7 10 8 5 9
38 34 31 25 3 6 7 10 23 3 4 6 4 6 5 7 7 15 19 9 2 11 9 5 7 6 2 8 3 4 11 9 8 2 4 3 3 5 4 7 5 5 7 3 7
41 34 27 17 11 3 3 22 17 4 4 3 4 5 4 9 3 3 4 4 10 9 7 12 7 6 6 19 14 9 10 14 8 4 3 4 5 6 5 6 7 8 7 9 8
39 34 25 8 7 9 18 18 2 5 5 4 8 7 5 4 5 5 3 2 5 6 5 11 6 8 11 14 7 13 4 6 3 4 2 3 4 4 2 4 3 3 8 8 7
38 33 20 8 4 6 16 5 5 3 6 3 4 2 5 3 3 3 2 3 4 2 5 5 6 4 2 2 4 3 4 3 4 4 3 3 2 6 6 7 2 7 5 6 6
42 22 10 12 5 5 5 5 1 5 5 6 3 9 4 1 4 5 2 4 2 4 3 4 5 1 2 4 2 1 5 4 4 2 4 1 4 5 4 7 11 12 8 6 8
40 11 8 2 9 3 5 3 6 5 2 8 4 4 4 2 2 6 2 2 3 4 1 1 3 2 2 4 7 2 4 5 5 2 2 3 4 7 3 7 13 13 7 8 7
23 11 6 2 14 6 5 4 4 3 6 5 5 4 5 6 3 2 4 1 4 2 3 4 4 4 3 3 3 4 8 4 1 5 4 2 2 5 4 6 8 6 8 7 6
7 4 3 11 12 5 3 6 6 7 9 2 1 1 2 2 2 2 2 2 6 5 10 5 4 7 5 4 3 1 2 5 4 2 5 4 5 7 6 4 9 8 8 9 8
8 3 7 18 3 1 2 3 5 15 18 8 4 3 1 2 2 3 4 2 5 3 4 1 3 1 4 5 1 3 3 5 4 4 2 3 5 5 8 2 9 9 9 9 12
4 3 4 3 1 3 6 5 5 11 9 4 2 2 2 5 4 3 4 2 9 3 3 3 1 3 7 6 3 2 2 3 4 3 5 5 5 4 4 4 7 11 9 12 11
2 4 4 4 2 3 6 8 5 9 3 4 8 9 7 7 7 5 3 2 1 4 8 6 4 6 7 7 4 5 5 6 6 3 3 6 4 4 6 6 6 6 9 9 10
1 1 1 4 4 9 4 5 10 7 3 8 7 6 3 4 6 3 3 2 1 3 2 4 3 4 4 10 8 7 7 11 7 12 6 6 9 12 9 9 7 7 7 7 6
3 3 4 4 5 5 5 5 5 10 7 6 4 2 8 4 4 5 3 5 7 2 2 4 2 1 3 4 12 12 13 14 15 10 2 8 1 6 5 5 6 8 9 7 8
8 5 2 4 5 4 2 4 6 6 6 2 2 6 8 4 2 2 2 4 4 2 2 2 1 1 4 4 7 5 6 5 2 5 6 5 6 6 6 7 8 8 8 9 8
Wind_Direction
12 10 6 4 6 357 338 324 316 313 314 318 326 327 328 322 307 270 237 222 214 251 290 279 244 229 205 204 193 177 353 295 320 12 287 135 133 176 162 135 191 182 155 190 168
10 10 8 1 359 355 344 320 307 310 315 327 332 337 334 330 312 251 233 226 228 267 241 228 261 97 251 217 186 153 131 243 57 268 193 267 164 157 138 134 58 51 54 141 160
8 9 7 2 354 349 338 319 310 312 319 332 336 336 333 332 308 247 240 221 217 231 245 271 283 174 212 196 182 180 191 180 256 260 282 242 222 187 140 227 193 183 153 156 168
4 5 4 3 355 342 332 318 307 310 320 332 334 334 327 335 174 227 281 213 218 230 255 267 70 72 344 208 235 150 216 192 250 260 276 187 203 83 174 210 182 178 164 162 179
1 0 360 359 355 342 328 310 300 303 313 325 332 336 339 18 252 291 272 199 213 224 241 57 303 168 257 234 89 227 288 313 266 262 287 292 153 157 217 207 187 155 161 173 176
359 357 357 354 352 341 323 302 291 293 301 314 330 337 50 306 284 287 256 179 204 210 233 197 228 195 230 251 152 210 137 225 282 201 235 266 141 75 240 36 67 121 83 65 59
358 355 354 350 348 338 321 301 288 289 294 299 309 334 280 232 2 324 200 195 220 218 219 249 255 237 226 349 304 192 259 309 343 308 296 190 308 87 90 74 40 88 112 109 59
358 353 351 348 347 337 320 305 295 294 296 289 283 164 246 276 274 264 200 226 235 244 244 273 278 299 34 317 0 21 56 303 257 288 281 123 286 32 146 126 133 132 134 187 193
358 352 349 345 344 338 323 305 290 287 292 285 179 183 269 316 211 246 218 217 227 250 257 268 290 86 21 43 13 14 308 298 329 316 263 39 359 340 351 92 139 209 198 207 84
356 351 347 343 340 338 324 303 288 287 297 263 260 329 268 233 234 221 215 229 233 267 301 328 55 68 23 62 319 289 314 276 321 307 292 77 1 356 317 227 234 266 328 42 66
353 349 344 340 336 335 328 326 21 3 211 202 196 237 288 275 251 259 230 218 243 38 289 322 68 70 280 237 188 197 257 280 285 286 105 105 91 312 318 302 291 300 317 91 122
351 346 341 338 332 326 302 177 216 120 301 224 237 256 267 277 296 285 241 165 152 230 328 343 128 218 300 357 353 323 312 294 285 310 112 125 150 228 263 279 287 292 290 140 84
350 342 337 336 329 326 251 240 259 321 338 285 192 205 234 166 240 265 169 175 171 203 240 190 215 228 38 317 290 276 222 244 238 360 60 144 154 243 244 259 258 257 261 193 174
347 340 335 335 347 334 262 354 341 266 43 278 196 247 200 167 282 240 218 161 174 208 231 186 215 195 228 322 278 280 256 265 281 37 263 157 254 318 336 313 256 338 267 203 165
345 339 332 327 299 252 329 325 342 121 10 231 185 185 168 157 176 298 175 110 197 218 115 240 207 223 187 235 252 237 268 267 275 217 117 352 84 271 347 337 343 22 8 34 106
344 341 329 312 278 273 327 336 59 50 266 276 171 192 120 222 230 294 338 120 200 211 214 236 210 173 214 241 261 267 254 335 46 92 20 309 127 267 285 267 299 40 37 42 73
343 334 313 238 234 335 344 30 47 143 300 23 218 129 83 351 321 106 204 342 205 252 285 302 272 338 132 122 316 45 79 338 355 22 234 261 32 234 256 267 352 138 62 16 47
341 333 307 258 250 299 27 53 122 272 264 307 65 67 124 189 187 162 1 330 182 111 174 190 335 155 192 140 180 32 128 160 220 175 256 106 231 246 230 313 95 93 108 95 78
342 342 306 317 181 197 71 79 215 231 316 329 52 79 7 298 27 39 327 305 335 39 203 122 270 283 152 162 119 198 75 132 100 330 246 179 262 303 45 39 110 121 152 118 118
340 335 287 107 151 92 76 226 251 250 325 359 50 66 23 334 60 22 335 337 3 104 149 11 352 322 216 77 7 162 146 83 337 177 231 245 258 230 202 157 131 142 151 143 146
356 13 337 150 143 56 154 237 290 302 351 164 217 281 282 262 219 231 284 341 0 26 68 21 112 303 18 351 240 36 98 61 128 146 176 179 251 207 216 198 174 182 157 158 169
350 5 163 152 54 55 169 222 306 298 301 275 174 184 135 293 291 291 162 276 338 356 63 281 121 47 269 268 337 284 155 133 137 233 251 172 263 196 192 213 174 170 171 179 178
345 278 76 195 89 324 296 292 281 287 273 231 224 137 57 349 336 277 115 70 6 24 107 170 158 340 336 334 315 118 178 152 133 108 197 160 257 208 193 228 192 160 168 180 193
356 1 326 29 108 56 347 295 289 316 352 20 44 56 39 30 34 26 49 295 111 130 170 143 172 172 226 235 238 270 227 186 163 164 200 227 181 186 194 198 180 161 153 164 175
54 11 124 347 331 313 221 290 300 306 30 35 30 93 126 44 7 34 168 273 246 328 338 128 202 173 246 287 233 239 276 263 255 246 211 230 175 199 186 177 171 161 159 154 134
38 28 354 267 288 326 3 16 327 353 30 353 86 59 75 101 179 265 224 208 227 93 55 357 265 156 248 18 345 302 237 247 257 258 332 161 200 165 165 151 152 151 153 162 179
339 327 123 270 329 22 314 288 302 311 309 321 2 90 46 325 10 101 41 60 86 90 133 164 136 244 265 355 352 322 303 265 305 73 140 160 213 142 148 171 168 182 166 169 166